| time (UTC) | temp F | wind direction | speed knots | gust knots | rain 1hr in | rain 24hr in | rain mn in | humidity % | barometer mb |
| 20260506004740 | 70 | 118 | 1.7 | 3.5 | 0.00 | 0.04 | 0.04 | 38 | 1181.5 |
| 20260506004238 | 69 | 109 | 6.1 | 7.0 | 0.00 | 0.04 | 0.04 | 39 | 1181.6 |
| 20260506003734 | 70 | 196 | 4.3 | 4.3 | 0.00 | 0.04 | 0.04 | 39 | 1181.5 |
| 20260506003231 | 70 | 132 | 3.5 | 4.3 | 0.00 | 0.04 | 0.04 | 39 | 1181.5 |
| 20260506002726 | 69 | 132 | 2.6 | 5.2 | 0.00 | 0.04 | 0.04 | 39 | 1181.6 |
| 20260506002223 | 69 | 164 | 5.2 | 7.8 | 0.00 | 0.04 | 0.04 | 39 | 1181.6 |
| 20260506001719 | 70 | 146 | 3.5 | 5.2 | 0.00 | 0.04 | 0.04 | 38 | 1181.6 |
| 20260506001217 | 69 | 175 | 4.3 | 5.2 | 0.00 | 0.04 | 0.04 | 40 | 1181.9 |
| 20260506000713 | 69 | 48 | 3.5 | 6.1 | 0.00 | 0.04 | 0.04 | 39 | 1181.6 |
| 20260506000212 | 69 | 131 | 6.1 | 7.0 | 0.00 | 0.04 | 0.04 | 41 | 1181.5 |
| 20260505235708 | 69 | 62 | 6.1 | 7.8 | 0.00 | 0.04 | 0.04 | 39 | 1181.5 |
| 20260505235206 | 69 | 174 | 5.2 | 5.2 | 0.00 | 0.04 | 0.04 | 40 | 1181.9 |
| 20260505234702 | 69 | 153 | 3.5 | 3.5 | 0.00 | 0.04 | 0.04 | 39 | 1181.5 |
| 20260505234200 | 69 | 176 | 2.6 | 4.3 | 0.00 | 0.04 | 0.04 | 40 | 1181.9 |
| 20260505233656 | 69 | 202 | 0.0 | 5.2 | 0.00 | 0.04 | 0.04 | 39 | 1181.8 |
| 20260505233154 | 69 | 209 | 3.5 | 7.8 | 0.00 | 0.04 | 0.04 | 41 | 1181.8 |
| 20260505232651 | 69 | 147 | 0.9 | 7.0 | 0.00 | 0.04 | 0.04 | 40 | 1181.9 |
| 20260505232149 | 69 | 187 | 4.3 | 6.1 | 0.00 | 0.04 | 0.04 | 41 | 1181.6 |
| 20260505231645 | 69 | 288 | 2.6 | 5.2 | 0.00 | 0.04 | 0.04 | 41 | 1181.9 |
| 20260505231145 | 69 | 154 | 3.5 | 7.8 | 0.00 | 0.04 | 0.04 | 41 | 1181.8 |
| 20260505230642 | 68 | 171 | 3.5 | 4.3 | 0.00 | 0.04 | 0.04 | 41 | 1181.8 |
| 20260505230138 | 69 | 180 | 3.5 | 5.2 | 0.00 | 0.04 | 0.04 | 42 | 1182.0 |
| 20260505225634 | 68 | 73 | 5.2 | 5.2 | 0.00 | 0.04 | 0.04 | 43 | 1182.0 |
| 20260505225131 | 68 | 102 | 6.1 | 7.8 | 0.00 | 0.04 | 0.04 | 43 | 1182.1 |
| 20260505224627 | 67 | 248 | 5.2 | 6.1 | 0.00 | 0.04 | 0.04 | 43 | 1182.0 |
| 20260505224125 | 68 | 193 | 4.3 | 7.8 | 0.00 | 0.04 | 0.04 | 44 | 1182.2 |
| 20260505223622 | 68 | 171 | 2.6 | 8.7 | 0.00 | 0.04 | 0.04 | 43 | 1182.2 |
| 20260505223118 | 68 | 207 | 3.5 | 8.7 | 0.00 | 0.04 | 0.04 | 43 | 1182.3 |
| 20260505222615 | 67 | 96 | 2.6 | 5.2 | 0.00 | 0.04 | 0.04 | 45 | 1182.2 |
| 20260505222111 | 67 | 56 | 4.3 | 7.0 | 0.00 | 0.04 | 0.04 | 43 | 1182.4 |
| 20260505221608 | 67 | 165 | 3.5 | 5.2 | 0.00 | 0.04 | 0.04 | 47 | 1182.6 |
| 20260505221104 | 67 | 72 | 4.3 | 5.2 | 0.00 | 0.04 | 0.04 | 43 | 1182.4 |
| 20260505220602 | 66 | 55 | 3.5 | 4.3 | 0.00 | 0.04 | 0.04 | 47 | 1182.7 |
| 20260505220100 | 66 | 83 | 1.7 | 5.2 | 0.00 | 0.04 | 0.04 | 45 | 1182.6 |
| 20260505215557 | 66 | 160 | 3.5 | 5.2 | 0.00 | 0.04 | 0.04 | 45 | 1182.7 |
| 20260505215055 | 66 | 258 | 0.9 | 3.5 | 0.00 | 0.04 | 0.04 | 46 | 1182.7 |
| 20260505214553 | 66 | 169 | 2.6 | 3.5 | 0.00 | 0.04 | 0.04 | 46 | 1182.6 |
| 20260505214050 | 65 | 142 | 1.7 | 5.2 | 0.00 | 0.04 | 0.04 | 45 | 1182.7 |
| 20260505213548 | 65 | 179 | 1.7 | 3.5 | 0.00 | 0.04 | 0.04 | 47 | 1182.7 |
| 20260505213043 | 65 | 61 | 2.6 | 5.2 | 0.00 | 0.04 | 0.04 | 46 | 1182.7 |
| 20260505212540 | 64 | 200 | 2.6 | 5.2 | 0.00 | 0.04 | 0.04 | 49 | 1182.7 |
| 20260505212038 | 64 | 179 | 2.6 | 6.1 | 0.00 | 0.04 | 0.04 | 49 | 1182.8 |
| 20260505211534 | 64 | 156 | 5.2 | 7.8 | 0.00 | 0.04 | 0.04 | 49 | 1183.0 |
| 20260505211031 | 65 | 127 | 5.2 | 6.1 | 0.00 | 0.04 | 0.04 | 50 | 1183.0 |
| 20260505210528 | 64 | 203 | 0.9 | 3.5 | 0.00 | 0.04 | 0.04 | 49 | 1183.2 |
| 20260505210025 | 64 | 150 | 1.7 | 5.2 | 0.00 | 0.04 | 0.04 | 53 | 1183.1 |
| 20260505205523 | 63 | 129 | 2.6 | 5.2 | 0.00 | 0.04 | 0.04 | 51 | 1183.2 |
| 20260505205020 | 62 | 117 | 6.1 | 7.8 | 0.00 | 0.04 | 0.04 | 54 | 1183.3 |
| 20260505204518 | 62 | 164 | 3.5 | 6.1 | 0.00 | 0.04 | 0.04 | 55 | 1183.3 |
| 20260505204015 | 62 | 57 | 0.0 | 5.2 | 0.00 | 0.04 | 0.04 | 53 | 1183.2 |
| 20260505203511 | 62 | 62 | 3.5 | 5.2 | 0.00 | 0.04 | 0.04 | 58 | 1183.5 |
| 20260505203008 | 62 | 151 | 5.2 | 7.8 | 0.00 | 0.04 | 0.04 | 56 | 1183.2 |
| 20260505202504 | 61 | 110 | 3.5 | 6.1 | 0.00 | 0.04 | 0.04 | 58 | 1183.2 |
| 20260505202000 | 61 | 133 | 2.6 | 6.1 | 0.00 | 0.04 | 0.04 | 57 | 1183.5 |
| 20260505201457 | 61 | 127 | 3.5 | 6.1 | 0.00 | 0.04 | 0.04 | 63 | 1183.2 |
| 20260505200955 | 60 | 180 | 1.7 | 5.2 | 0.00 | 0.04 | 0.04 | 59 | 1183.6 |
| 20260505200453 | 60 | 174 | 4.3 | 7.0 | 0.00 | 0.04 | 0.04 | 63 | 1183.5 |
| 20260505195948 | 60 | 161 | 1.7 | 6.1 | 0.00 | 0.04 | 0.04 | 60 | 1183.5 |
| 20260505195445 | 59 | 136 | 0.9 | 6.1 | 0.00 | 0.04 | 0.04 | 58 | 1183.5 |
| 20260505194943 | 59 | 99 | 4.3 | 4.3 | 0.00 | 0.04 | 0.04 | 58 | 1183.7 |
| 20260505194440 | 58 | 158 | 3.5 | 6.1 | 0.00 | 0.04 | 0.04 | 64 | 1183.8 |
| 20260505193940 | 58 | 126 | 1.7 | 5.2 | 0.00 | 0.04 | 0.04 | 64 | 1183.6 |
| 20260505193438 | 58 | 179 | 4.3 | 5.2 | 0.00 | 0.04 | 0.04 | 65 | 1183.6 |
| 20260505192935 | 57 | 106 | 0.9 | 2.6 | 0.00 | 0.04 | 0.04 | 66 | 1183.6 |
| 20260505192433 | 57 | 185 | 2.6 | 6.1 | 0.00 | 0.04 | 0.04 | 68 | 1183.6 |
| 20260505191931 | 57 | 190 | 4.3 | 5.2 | 0.00 | 0.04 | 0.04 | 68 | 1183.6 |
| 20260505191430 | 57 | 135 | 3.5 | 7.8 | 0.00 | 0.04 | 0.04 | 67 | 1183.5 |
| 20260505190926 | 57 | 130 | 5.2 | 7.0 | 0.00 | 0.04 | 0.04 | 68 | 1183.3 |
| 20260505190421 | 57 | 81 | 3.5 | 7.0 | 0.00 | 0.04 | 0.04 | 67 | 1183.7 |
| 20260505185916 | 57 | 77 | 2.6 | 5.2 | 0.00 | 0.04 | 0.04 | 69 | 1183.5 |
| 20260505185414 | 57 | 138 | 2.6 | 6.1 | 0.00 | 0.04 | 0.04 | 67 | 1183.5 |
| 20260505184910 | 57 | 159 | 2.6 | 7.8 | 0.00 | 0.04 | 0.04 | 65 | 1183.6 |
| 20260505184407 | 56 | 46 | 1.7 | 3.5 | 0.00 | 0.04 | 0.04 | 70 | 1183.6 |
| 20260505183904 | 55 | 101 | 1.7 | 3.5 | 0.00 | 0.04 | 0.04 | 69 | 1183.5 |
| 20260505183401 | 55 | 118 | 5.2 | 5.2 | 0.00 | 0.04 | 0.04 | 69 | 1183.5 |
| 20260505182857 | 54 | 103 | 2.6 | 4.3 | 0.00 | 0.04 | 0.04 | 69 | 1183.5 |
| 20260505182355 | 54 | 197 | 4.3 | 5.2 | 0.00 | 0.04 | 0.04 | 70 | 1183.5 |
| 20260505181851 | 53 | 110 | 1.7 | 6.1 | 0.00 | 0.04 | 0.04 | 72 | 1183.3 |
| 20260505181348 | 53 | 222 | 3.5 | 6.1 | 0.00 | 0.04 | 0.04 | 73 | 1183.5 |
| 20260505180845 | 53 | 161 | 2.6 | 4.3 | 0.00 | 0.04 | 0.04 | 72 | 1183.5 |
| 20260505180341 | 53 | 176 | 2.6 | 5.2 | 0.00 | 0.04 | 0.04 | 73 | 1183.5 |
| 20260505175838 | 52 | 232 | 2.6 | 5.2 | 0.00 | 0.04 | 0.04 | 75 | 1183.5 |
| 20260505175334 | 52 | 216 | 1.7 | 6.1 | 0.00 | 0.04 | 0.04 | 76 | 1183.2 |
| 20260505174831 | 52 | 237 | 3.5 | 4.3 | 0.00 | 0.04 | 0.04 | 75 | 1183.3 |
| 20260505174329 | 52 | 244 | 5.2 | 5.2 | 0.00 | 0.04 | 0.04 | 75 | 1183.3 |
| 20260505173824 | 51 | 208 | 3.5 | 6.1 | 0.00 | 0.04 | 0.04 | 77 | 1183.3 |
| 20260505173320 | 51 | 227 | 3.5 | 5.2 | 0.00 | 0.04 | 0.04 | 77 | 1183.0 |
| 20260505172818 | 51 | 209 | 5.2 | 5.2 | 0.00 | 0.04 | 0.04 | 76 | 1183.1 |
| 20260505172316 | 51 | 217 | 2.6 | 3.5 | 0.00 | 0.04 | 0.04 | 78 | 1182.9 |
| 20260505171815 | 51 | 227 | 5.2 | 6.1 | 0.00 | 0.04 | 0.04 | 77 | 1183.0 |
| 20260505171313 | 51 | 195 | 4.3 | 6.1 | 0.00 | 0.04 | 0.04 | 78 | 1183.0 |
| 20260505170808 | 51 | 249 | 4.3 | 9.6 | 0.00 | 0.04 | 0.04 | 77 | 1182.9 |
| 20260505170306 | 51 | 222 | 5.2 | 8.7 | 0.00 | 0.04 | 0.04 | 78 | 1182.7 |
| 20260505165801 | 51 | 234 | 4.3 | 7.8 | 0.00 | 0.04 | 0.04 | 79 | 1182.7 |
| 20260505165257 | 51 | 222 | 6.1 | 9.6 | 0.00 | 0.04 | 0.04 | 79 | 1182.8 |
| 20260505164753 | 51 | 223 | 5.2 | 10.4 | 0.00 | 0.04 | 0.04 | 79 | 1182.8 |
| 20260505164250 | 51 | 222 | 3.5 | 8.7 | 0.00 | 0.04 | 0.04 | 80 | 1182.4 |
| 20260505163748 | 51 | 193 | 2.6 | 7.8 | 0.00 | 0.04 | 0.04 | 81 | 1182.7 |
| 20260505163247 | 51 | 209 | 3.5 | 7.8 | 0.00 | 0.04 | 0.04 | 80 | 1182.4 |
| 20260505162744 | 51 | 225 | 4.3 | 8.7 | 0.00 | 0.04 | 0.04 | 80 | 1182.4 |
| 20260505162241 | 51 | 189 | 1.7 | 5.2 | 0.00 | 0.04 | 0.04 | 81 | 1182.4 |
| 20260505161737 | 51 | 207 | 2.6 | 6.1 | 0.00 | 0.04 | 0.04 | 80 | 1182.4 |
| 20260505161235 | 51 | 180 | 2.6 | 6.1 | 0.00 | 0.04 | 0.04 | 81 | 1182.3 |
| 20260505160732 | 51 | 190 | 4.3 | 5.2 | 0.00 | 0.04 | 0.04 | 77 | 1182.6 |
| 20260505160230 | 51 | 189 | 4.3 | 4.3 | 0.00 | 0.04 | 0.04 | 78 | 1182.4 |
| 20260505153209 | 50 | 265 | 3.5 | 4.3 | 0.00 | 0.04 | 0.04 | 82 | 1182.0 |
| 20260505152706 | 50 | 273 | 2.6 | 3.5 | 0.00 | 0.04 | 0.04 | 83 | 1182.1 |
| 20260505152202 | 50 | 310 | 0.9 | 5.2 | 0.00 | 0.04 | 0.04 | 84 | 1182.0 |
| 20260505151657 | 50 | 199 | 0.9 | 3.5 | 0.00 | 0.04 | 0.04 | 82 | 1182.0 |
| 20260505151155 | 50 | 308 | 0.9 | 2.6 | 0.00 | 0.04 | 0.04 | 84 | 1182.0 |
| 20260505150651 | 49 | 230 | 0.0 | 1.7 | 0.00 | 0.04 | 0.04 | 84 | 1182.0 |
| 20260505150148 | 49 | 213 | 0.9 | 2.6 | 0.00 | 0.04 | 0.04 | 84 | 1182.0 |
| 20260505140616 | 47 | 277 | 1.7 | 2.6 | 0.00 | 0.04 | 0.04 | 88 | 1181.5 |
| 20260505140114 | 47 | 237 | 0.0 | 0.9 | 0.00 | 0.04 | 0.04 | 88 | 1181.3 |
| 20260505125030 | 47 | 166 | 1.7 | 3.5 | 0.00 | 0.04 | 0.04 | 86 | 1180.2 |
| 20260505124527 | 46 | 137 | 2.6 | 5.2 | 0.00 | 0.04 | 0.04 | 86 | 1180.4 |
| 20260505124023 | 47 | 150 | 1.7 | 3.5 | 0.00 | 0.04 | 0.04 | 86 | 1180.1 |
| 20260505123520 | 46 | 216 | 3.5 | 7.0 | 0.00 | 0.04 | 0.04 | 86 | 1180.3 |
| 20260505123015 | 46 | 181 | 2.6 | 3.5 | 0.00 | 0.04 | 0.04 | 87 | 1180.1 |
| 20260505122513 | 46 | 180 | 1.7 | 3.5 | 0.00 | 0.04 | 0.04 | 87 | 1180.1 |
| 20260505122010 | 46 | 271 | 2.6 | 2.6 | 0.00 | 0.04 | 0.04 | 87 | 1180.2 |
| 20260505121506 | 46 | 263 | 2.6 | 3.5 | 0.00 | 0.04 | 0.04 | 87 | 1180.2 |
| 20260505121003 | 46 | 238 | 3.5 | 3.5 | 0.00 | 0.04 | 0.04 | 88 | 1180.1 |
| 20260505120459 | 46 | 219 | 1.7 | 4.3 | 0.00 | 0.04 | 0.04 | 88 | 1179.8 |
| 20260505115958 | 46 | 212 | 4.3 | 4.3 | 0.00 | 0.04 | 0.04 | 88 | 1180.1 |
| 20260505115454 | 46 | 248 | 8.7 | 8.7 | 0.00 | 0.04 | 0.04 | 87 | 1179.8 |
| 20260505114953 | 46 | 173 | 3.5 | 5.2 | 0.00 | 0.04 | 0.04 | 88 | 1180.2 |
| 20260505114448 | 46 | 196 | 1.7 | 5.2 | 0.00 | 0.04 | 0.04 | 88 | 1180.2 |
| 20260505113946 | 46 | 235 | 3.5 | 4.3 | 0.00 | 0.04 | 0.04 | 88 | 1180.0 |
| 20260505113442 | 46 | 157 | 2.6 | 2.6 | 0.00 | 0.04 | 0.04 | 87 | 1180.2 |
| 20260505112937 | 46 | 210 | 2.6 | 4.3 | 0.00 | 0.04 | 0.04 | 87 | 1180.1 |
| 20260505112435 | 46 | 183 | 2.6 | 5.2 | 0.00 | 0.04 | 0.04 | 88 | 1180.2 |
| 20260505111932 | 46 | 176 | 4.3 | 4.3 | 0.00 | 0.04 | 0.04 | 88 | 1180.3 |
| 20260505111426 | 46 | 181 | 3.5 | 7.0 | 0.00 | 0.04 | 0.04 | 89 | 1180.1 |
| 20260505110923 | 46 | 214 | 4.3 | 6.1 | 0.00 | 0.04 | 0.04 | 89 | 1180.1 |
| 20260505110420 | 46 | 231 | 2.6 | 5.2 | 0.00 | 0.04 | 0.04 | 90 | 1180.1 |
| 20260505101850 | 46 | 182 | 4.3 | 6.1 | 0.00 | 0.04 | 0.04 | 90 | 1180.3 |
| 20260505101345 | 46 | 129 | 0.0 | 3.5 | 0.00 | 0.04 | 0.04 | 90 | 1180.4 |
| 20260505100841 | 46 | 199 | 1.7 | 4.3 | 0.00 | 0.04 | 0.04 | 90 | 1180.3 |
| 20260505100338 | 46 | 192 | 2.6 | 7.0 | 0.00 | 0.04 | 0.04 | 90 | 1180.4 |
| 20260505095834 | 46 | 231 | 2.6 | 4.3 | 0.00 | 0.04 | 0.04 | 91 | 1180.5 |
| 20260505095332 | 46 | 194 | 3.5 | 5.2 | 0.00 | 0.04 | 0.04 | 91 | 1180.5 |
| 20260505094827 | 46 | 236 | 2.6 | 6.1 | 0.00 | 0.04 | 0.04 | 91 | 1180.5 |
| 20260505094324 | 46 | 203 | 3.5 | 8.7 | 0.00 | 0.04 | 0.04 | 92 | 1180.5 |
| 20260505093820 | 46 | 215 | 7.8 | 7.8 | 0.00 | 0.04 | 0.04 | 92 | 1180.5 |
| 20260505093318 | 46 | 235 | 5.2 | 7.0 | 0.00 | 0.04 | 0.04 | 92 | 1180.5 |
| 20260505092814 | 46 | 233 | 2.6 | 3.5 | 0.00 | 0.04 | 0.04 | 92 | 1180.9 |
| 20260505092313 | 46 | 169 | 0.9 | 3.5 | 0.00 | 0.04 | 0.04 | 91 | 1181.1 |
| 20260505091810 | 46 | 207 | 3.5 | 7.0 | 0.02 | 0.04 | 0.04 | 91 | 1181.2 |
| 20260505091308 | 46 | 191 | 3.5 | 6.1 | 0.02 | 0.04 | 0.04 | 91 | 1181.0 |
| 20260505090806 | 46 | 210 | 4.3 | 6.1 | 0.00 | 0.04 | 0.04 | 91 | 1181.0 |
| 20260505090304 | 46 | 212 | 5.2 | 5.2 | 0.00 | 0.04 | 0.04 | 91 | 1181.1 |
| 20260505085800 | 46 | 218 | 3.5 | 8.7 | 0.00 | 0.04 | 0.04 | 91 | 1181.2 |
| 20260505085259 | 46 | 252 | 7.0 | 13.0 | 0.00 | 0.04 | 0.04 | 91 | 1180.6 |
| 20260505084755 | 46 | 188 | 4.3 | 11.3 | 0.00 | 0.04 | 0.04 | 91 | 1180.7 |
| 20260505084249 | 46 | 199 | 5.2 | 11.3 | 0.00 | 0.04 | 0.04 | 91 | 1180.9 |
| 20260505083745 | 46 | 238 | 2.6 | 6.1 | 0.00 | 0.04 | 0.04 | 91 | 1180.9 |
| 20260505083242 | 46 | 173 | 4.3 | 5.2 | 0.00 | 0.04 | 0.04 | 91 | 1181.0 |
| 20260505082738 | 46 | 227 | 4.3 | 5.2 | 0.00 | 0.04 | 0.04 | 90 | 1181.2 |
| 20260505082235 | 46 | 198 | 3.5 | 10.4 | 0.00 | 0.04 | 0.04 | 90 | 1181.0 |
| 20260505081731 | 46 | 208 | 2.6 | 5.2 | 0.02 | 0.04 | 0.04 | 90 | 1181.2 |
| 20260505081229 | 46 | 272 | 1.7 | 9.6 | 0.02 | 0.03 | 0.03 | 90 | 1181.2 |
| 20260505080726 | 46 | 234 | 3.5 | 11.3 | 0.09 | 0.03 | 0.03 | 90 | 1181.3 |
| 20260505080221 | 46 | 201 | 3.5 | 7.0 | 0.07 | 0.02 | 0.02 | 90 | 1181.2 |
| 20260505075717 | 46 | 267 | 2.6 | 7.8 | 0.05 | 0.02 | 0.02 | 89 | 1181.5 |
| 20260505075214 | 46 | 224 | 8.7 | 12.2 | 0.02 | 0.01 | 0.01 | 89 | 1181.1 |
| 20260505074712 | 46 | 226 | 5.2 | 11.3 | 0.00 | 0.01 | 0.01 | 89 | 1181.0 |
| 20260505074208 | 46 | 250 | 10.4 | 13.0 | 0.00 | 0.01 | 0.01 | 89 | 1181.0 |
| 20260505073706 | 46 | 235 | 10.4 | 14.8 | 0.00 | 0.01 | 0.01 | 89 | 1181.0 |
| 20260505073204 | 46 | 207 | 10.4 | 13.0 | 0.00 | 0.01 | 0.01 | 89 | 1181.0 |
| 20260505072659 | 46 | 219 | 3.5 | 9.6 | 0.00 | 0.01 | 0.01 | 89 | 1180.9 |
| 20260505072156 | 46 | 214 | 3.5 | 10.4 | 0.00 | 0.01 | 0.01 | 89 | 1180.6 |
| 20260505071652 | 46 | 202 | 3.5 | 8.7 | 0.02 | 0.01 | 0.01 | 89 | 1180.6 |
| 20260505071150 | 46 | 235 | 7.8 | 10.4 | 0.05 | 0.01 | 0.01 | 88 | 1180.9 |
| 20260505070646 | 46 | 204 | 5.2 | 7.8 | 0.09 | 0.00 | 0.00 | 88 | 1180.7 |
| 20260505070143 | 47 | 200 | 4.3 | 8.7 | 0.17 | 0.00 | 0.00 | 87 | 1181.0 |
| 20260505065639 | 47 | 246 | 7.0 | 10.4 | 0.17 | 0.16 | 0.16 | 86 | 1181.4 |
| 20260505065136 | 47 | 236 | 7.0 | 8.7 | 0.14 | 0.14 | 0.14 | 84 | 1181.5 |
| 20260505064632 | 47 | 221 | 6.1 | 11.3 | 0.09 | 0.13 | 0.13 | 84 | 1181.4 |
| 20260505064131 | 48 | 249 | 5.2 | 11.3 | 0.02 | 0.12 | 0.12 | 82 | 1181.2 |
| 20260505063628 | 48 | 257 | 2.6 | 6.1 | 0.02 | 0.11 | 0.11 | 83 | 1181.4 |
| 20260505063124 | 48 | 242 | 4.3 | 11.3 | 0.05 | 0.11 | 0.11 | 82 | 1181.0 |
| 20260505062620 | 48 | 236 | 7.0 | 15.6 | 0.05 | 0.11 | 0.11 | 81 | 1180.2 |
| 20260505062118 | 49 | 216 | 5.2 | 9.6 | 0.02 | 0.11 | 0.11 | 80 | 1180.6 |
| 20260505061615 | 49 | 215 | 7.8 | 9.6 | 0.00 | 0.10 | 0.10 | 78 | 1180.7 |
| 20260505061113 | 49 | 223 | 3.5 | 7.8 | 0.00 | 0.10 | 0.10 | 79 | 1180.9 |
| 20260505060610 | 49 | 218 | 5.2 | 10.4 | 0.00 | 0.10 | 0.10 | 78 | 1180.5 |
| 20260505060107 | 49 | 205 | 2.6 | 5.2 | 0.00 | 0.10 | 0.10 | 79 | 1180.4 |
| 20260505055602 | 49 | 191 | 3.5 | 7.8 | 0.00 | 0.10 | 0.10 | 79 | 1180.5 |
| 20260505055059 | 49 | 228 | 4.3 | 10.4 | 0.00 | 0.10 | 0.10 | 78 | 1180.7 |
| 20260505054556 | 49 | 207 | 4.3 | 10.4 | 0.00 | 0.10 | 0.10 | 77 | 1180.4 |
| 20260505054054 | 50 | 246 | 6.1 | 9.6 | 0.00 | 0.10 | 0.10 | 76 | 1180.5 |
| 20260505053551 | 50 | 233 | 7.8 | 13.0 | 0.00 | 0.10 | 0.10 | 76 | 1180.6 |
| 20260505053048 | 49 | 260 | 7.0 | 14.8 | 0.00 | 0.10 | 0.10 | 77 | 1180.4 |
| 20260505052544 | 49 | 233 | 6.1 | 11.3 | 0.00 | 0.10 | 0.10 | 78 | 1180.5 |
| 20260505052042 | 49 | 241 | 8.7 | 13.9 | 0.00 | 0.10 | 0.10 | 77 | 1180.5 |
| 20260505051539 | 49 | 246 | 5.2 | 9.6 | 0.00 | 0.10 | 0.10 | 78 | 1180.7 |
| 20260505051037 | 49 | 259 | 7.0 | 11.3 | 0.00 | 0.10 | 0.10 | 77 | 1180.7 |
| 20260505050535 | 49 | 235 | 8.7 | 11.3 | 0.00 | 0.10 | 0.10 | 75 | 1180.6 |
| 20260505041502 | 49 | 228 | 5.2 | 9.6 | 0.00 | 0.10 | 0.10 | 76 | 1180.5 |
| 20260505041000 | 49 | 206 | 3.5 | 10.4 | 0.00 | 0.10 | 0.10 | 78 | 1180.6 |
| 20260505040457 | 50 | 224 | 4.3 | 6.1 | 0.00 | 0.10 | 0.10 | 78 | 1180.7 |
| 20260505035954 | 49 | 256 | 6.1 | 7.8 | 0.00 | 0.10 | 0.10 | 77 | 1180.4 |
| 20260505035450 | 49 | 234 | 5.2 | 6.1 | 0.00 | 0.10 | 0.10 | 79 | 1180.5 |
| 20260505034947 | 49 | 241 | 4.3 | 5.2 | 0.00 | 0.10 | 0.10 | 79 | 1180.4 |
| 20260505034444 | 49 | 205 | 3.5 | 7.0 | 0.00 | 0.10 | 0.10 | 79 | 1180.0 |
| 20260505033941 | 49 | 237 | 6.1 | 8.7 | 0.00 | 0.10 | 0.10 | 80 | 1180.0 |
| 20260505033437 | 49 | 217 | 7.8 | 9.6 | 0.00 | 0.10 | 0.10 | 80 | 1179.7 |
| 20260505032936 | 49 | 208 | 6.1 | 7.8 | 0.00 | 0.10 | 0.10 | 79 | 1180.0 |
| 20260505032433 | 49 | 205 | 3.5 | 7.0 | 0.00 | 0.10 | 0.10 | 80 | 1180.2 |
| 20260505031929 | 49 | 213 | 7.8 | 11.3 | 0.00 | 0.10 | 0.10 | 79 | 1180.2 |
| 20260505031426 | 49 | 232 | 7.8 | 10.4 | 0.00 | 0.10 | 0.10 | 78 | 1180.4 |
| 20260505030923 | 49 | 237 | 7.8 | 9.6 | 0.00 | 0.10 | 0.10 | 79 | 1180.5 |
| 20260505030419 | 49 | 237 | 9.6 | 11.3 | 0.00 | 0.10 | 0.10 | 80 | 1180.4 |
| 20260505025914 | 49 | 201 | 7.8 | 13.0 | 0.00 | 0.10 | 0.10 | 81 | 1180.5 |
| 20260505025412 | 49 | 218 | 7.0 | 12.2 | 0.00 | 0.10 | 0.10 | 80 | 1180.3 |
| 20260505024911 | 50 | 226 | 7.8 | 12.2 | 0.00 | 0.10 | 0.10 | 80 | 1180.4 |
| 20260505024408 | 50 | 227 | 9.6 | 12.2 | 0.00 | 0.10 | 0.10 | 82 | 1180.5 |
| 20260505023905 | 50 | 263 | 6.1 | 13.0 | 0.00 | 0.10 | 0.10 | 81 | 1180.4 |
| 20260505023402 | 50 | 242 | 7.0 | 11.3 | 0.00 | 0.10 | 0.10 | 81 | 1180.4 |
| 20260505022859 | 50 | 213 | 4.3 | 12.2 | 0.00 | 0.10 | 0.10 | 82 | 1180.3 |
| 20260505022356 | 50 | 250 | 7.8 | 9.6 | 0.00 | 0.10 | 0.10 | 82 | 1180.2 |
| 20260505021853 | 50 | 234 | 9.6 | 13.9 | 0.00 | 0.10 | 0.10 | 82 | 1180.3 |
| 20260505021349 | 50 | 214 | 13.9 | 14.8 | 0.00 | 0.10 | 0.10 | 81 | 1180.1 |
| 20260505020845 | 50 | 244 | 5.2 | 11.3 | 0.00 | 0.10 | 0.10 | 82 | 1180.1 |
| 20260505020341 | 50 | 250 | 4.3 | 10.4 | 0.00 | 0.10 | 0.10 | 82 | 1180.1 |
| 20260505015838 | 50 | 230 | 7.0 | 14.8 | 0.00 | 0.10 | 0.10 | 83 | 1179.8 |
| 20260505015335 | 50 | 252 | 5.2 | 11.3 | 0.00 | 0.10 | 0.10 | 82 | 1179.7 |
| 20260505014833 | 50 | 230 | 8.7 | 13.9 | 0.00 | 0.10 | 0.10 | 82 | 1179.5 |
| 20260505014329 | 51 | 223 | 5.2 | 13.0 | 0.00 | 0.10 | 0.10 | 81 | 1179.3 |
| 20260505013826 | 51 | 223 | 5.2 | 11.3 | 0.00 | 0.10 | 0.10 | 82 | 1179.3 |
| 20260505013323 | 51 | 216 | 8.7 | 13.0 | 0.00 | 0.10 | 0.10 | 81 | 1179.2 |
| 20260505012822 | 51 | 246 | 7.0 | 13.0 | 0.00 | 0.10 | 0.10 | 81 | 1179.6 |
| 20260505012319 | 51 | 220 | 7.8 | 12.2 | 0.00 | 0.10 | 0.10 | 81 | 1179.5 |
| 20260505011815 | 51 | 227 | 6.1 | 11.3 | 0.05 | 0.10 | 0.10 | 81 | 1180.0 |
| 20260505011312 | 51 | 248 | 7.8 | 9.6 | 0.07 | 0.10 | 0.10 | 81 | 1180.5 |
| 20260505010808 | 51 | 267 | 5.2 | 10.4 | 0.02 | 0.09 | 0.09 | 79 | 1180.3 |
| 20260505010304 | 51 | 260 | 5.2 | 7.0 | 0.02 | 0.09 | 0.09 | 81 | 1180.7 |
| 20260505005800 | 51 | 277 | 3.5 | 8.7 | 0.02 | 0.09 | 0.09 | 80 | 1180.7 |
| 20260505005257 | 51 | 253 | 3.5 | 8.7 | 0.00 | 0.09 | 0.09 | 81 | 1181.0 |
| 20260505004755 | 51 | 280 | 4.3 | 7.0 | 0.00 | 0.09 | 0.09 | 81 | 1180.5 |